Vorticity
nan nan nan nan nan nan nan nan nan nan nan nan nan nan nan nan nan nan nan nan nan nan nan nan nan nan nan nan nan nan nan nan nan nan nan nan nan nan nan nan nan nan nan
nan 10 9 8 10 8 8 8 9 9 8 8 9 8 6 8 10 8 8 10 10 8 9 9 11 11 11 12 9 9 11 11 10 7 9 13 10 10 12 11 11 11 nan
nan 8 9 9 8 9 9 9 9 9 9 8 8 7 7 9 8 8 10 11 11 11 10 9 9 9 10 9 10 11 11 10 11 10 9 9 10 10 12 13 12 13 nan
nan 10 10 10 9 9 10 11 10 9 10 11 9 9 10 10 10 10 10 10 10 9 8 10 10 9 8 9 10 11 10 11 12 10 10 10 9 9 11 12 12 12 nan
nan 11 11 10 11 11 12 12 11 11 10 11 12 10 9 9 12 10 11 13 8 7 8 10 8 9 10 10 9 9 9 10 11 11 11 10 10 9 10 11 12 10 nan
nan 10 10 11 12 11 11 12 11 12 12 10 9 12 11 12 15 14 9 6 8 6 8 8 11 12 9 7 9 7 6 8 7 9 9 8 8 10 10 8 9 9 nan
nan 10 11 10 10 11 12 13 11 10 10 11 13 12 10 11 13 14 9 8 8 8 8 7 8 11 10 10 10 9 8 7 5 7 8 7 8 8 7 8 9 11 nan
nan 10 10 10 11 14 13 10 9 10 11 8 7 10 11 12 13 12 8 7 8 8 8 9 8 7 13 12 9 9 10 9 12 8 7 7 7 6 7 9 7 9 nan
nan 10 11 12 14 12 12 10 10 10 5 7 14 12 10 12 10 7 9 10 10 9 9 9 12 9 9 14 13 10 9 11 15 9 3 6 9 9 8 8 10 10 nan
nan 12 13 14 15 10 10 12 9 9 12 10 11 10 12 5 9 19 15 10 9 9 9 10 8 8 8 12 12 10 9 9 5 7 12 16 12 13 12 4 7 8 nan
nan 15 14 15 7 3 5 7 12 14 11 13 10 9 8 9 7 12 22 20 11 11 10 10 4 5 7 10 12 12 7 9 13 12 11 11 11 12 11 12 9 9 nan
nan 13 14 10 8 6 7 11 12 9 10 10 8 6 6 7 6 8 11 13 17 15 12 11 4 4 10 11 11 9 13 13 14 12 11 11 11 12 12 11 10 11 nan
nan 13 9 8 11 12 11 9 9 11 13 10 8 8 8 8 7 3 3 6 13 13 10 10 12 11 11 7 7 10 16 14 13 11 11 12 13 11 14 16 15 13 nan
nan 11 10 10 10 12 9 12 13 12 9 11 11 10 9 8 8 8 7 9 8 9 8 12 14 15 12 11 8 12 12 12 13 13 11 11 12 11 10 13 15 14 nan
nan 8 7 7 8 5 8 16 14 15 22 18 12 12 12 10 8 10 13 13 11 11 12 11 11 12 12 12 12 11 11 10 12 12 11 11 10 11 12 12 10 10 nan
nan 8 8 8 7 8 8 2 7 13 13 12 16 20 16 13 10 9 12 11 9 10 16 10 10 10 10 10 11 11 10 10 10 11 11 11 11 11 10 11 11 12 nan
nan 8 12 11 13 10 7 8 2 0 4 6 9 8 13 13 10 10 10 6 9 14 12 9 10 10 10 10 10 10 10 10 11 12 11 11 11 10 11 11 12 11 nan
nan 12 8 10 10 11 11 10 9 8 5 4 6 9 8 10 9 10 11 13 8 12 9 9 9 9 10 10 10 11 11 12 12 11 13 12 13 12 12 11 11 9 nan
nan 12 11 12 12 12 10 10 11 11 11 12 11 9 7 7 9 8 10 14 10 8 10 10 10 10 10 11 10 10 11 12 13 12 13 14 13 13 12 12 12 12 nan
nan 13 13 12 10 9 10 10 11 11 11 9 10 12 10 8 7 9 11 9 9 9 10 10 10 11 11 11 11 10 9 9 13 14 13 15 14 12 11 12 12 14 nan
nan 7 8 10 12 11 11 11 12 11 11 10 9 6 9 16 10 9 9 9 10 10 9 10 10 11 11 10 11 11 10 9 9 12 14 15 14 12 13 12 11 12 nan
nan 12 10 10 11 12 13 12 11 11 11 11 10 9 11 10 9 9 9 10 10 10 10 10 10 10 11 11 11 11 10 10 9 10 11 15 16 14 13 13 12 12 nan
nan 11 11 12 14 11 8 11 12 11 10 10 10 9 11 9 9 11 10 10 10 10 11 11 10 10 10 12 12 11 11 11 11 9 9 11 16 16 15 16 16 14 nan
nan 12 10 9 10 12 11 10 9 11 12 10 10 10 9 9 9 9 10 10 11 11 11 11 10 9 10 11 11 12 11 12 13 7 9 10 11 17 17 16 15 18 nan
nan 12 13 12 11 11 11 11 10 8 8 10 10 9 10 10 10 10 10 10 11 11 10 11 9 8 9 9 9 7 12 16 14 14 9 7 8 13 16 16 17 16 nan
nan nan nan nan nan nan nan nan nan nan nan nan nan nan nan nan nan nan nan nan nan nan nan nan nan nan nan nan nan nan nan nan nan nan nan nan nan nan nan nan nan nan nan
CAPE
969 1249 1370 1502 1501 1709 1700 1971 2161 2060 2491 2988 3148 3100 3298 3376 3460 3815 3979 3928 3664 3586 3283 3203 3090 2603 2019 1405 840 1090 1264 872 845 1447 1507 1300 1393 1465 1454 1333 1165 1297 1205
1360 1655 1257 1509 1790 1383 1615 1859 2176 2388 2584 3212 3550 3458 3619 3703 3765 3755 3280 3211 3332 3347 3407 3353 2946 2276 2120 1813 1933 2177 1892 1560 1100 1145 1731 1450 1694 1731 1644 1716 1643 1469 1284
1329 1138 1246 1331 1404 1439 1578 1702 1984 2450 2778 2519 3281 3703 3605 3504 3772 3723 3544 3367 3116 3173 3133 2533 1798 1569 998 679 642 425 1229 1136 1195 570 751 785 1144 1611 1735 1866 2012 2024 2217
1224 1235 1486 1549 1593 1664 1826 2086 2019 2353 2660 2615 2707 3021 3274 3432 3394 3419 3310 2982 3145 2576 1397 1164 634 254 199 155 113 219 113 163 120 335 746 771 731 944 1565 1557 1463 1988 1516
2099 1778 2094 2104 2102 2180 2663 2718 2454 2586 2837 3026 3203 3355 3566 3480 3210 3181 3029 2982 2046 792 564 406 90 21 0 6 0 23 81 11 1 46 106 453 798 760 816 974 1195 1264 1337
2430 2309 2704 3036 3264 3299 3372 2892 3046 3238 3529 3690 3589 3620 3369 2962 2397 2084 2259 1288 743 498 164 104 162 34 30 0 0 0 0 11 31 7 0 8 55 185 462 394 484 777 1091
2587 2787 3146 3449 3649 3786 3373 3436 3587 3610 3520 3156 2955 3191 2914 2572 676 695 473 394 191 227 264 162 62 0 19 154 17 0 0 0 0 0 42 0 0 0 0 1 3 311 563
2527 2749 3107 3394 3644 3281 3274 3055 3117 2973 2287 2647 2522 1532 1102 494 4 65 66 279 329 142 22 35 36 8 5 36 139 82 32 0 0 0 0 0 0 0 0 0 0 8 90
2447 2724 3021 3263 3311 2595 2383 2652 2687 1825 2189 989 986 796 515 272 0 0 44 506 187 10 2 11 3 4 0 0 3 21 2 28 0 0 0 0 0 0 0 0 0 0 0
2426 2814 2992 2857 2252 2207 2013 848 1145 496 57 202 739 409 54 634 0 0 35 216 2 0 12 18 0 0 0 0 0 1 1 16 2 0 0 0 0 0 0 0 0 0 0
2677 2774 2767 2398 2026 545 479 464 229 75 6 397 472 738 52 162 0 0 0 179 34 0 0 0 0 0 0 0 0 0 3 0 0 0 0 0 0 0 0 0 0 0 0
2844 2473 1946 1730 808 681 322 404 149 233 518 828 713 190 0 0 0 0 0 0 0 0 0 0 0 0 0 0 0 0 0 0 0 0 0 0 0 0 1 3 2 3 6
2161 1674 1324 1040 767 456 257 269 874 1171 1329 714 775 275 0 0 0 0 0 0 0 0 0 0 0 0 0 0 0 0 0 0 0 4 8 8 23 26 19 46 60 68 57
1925 1368 960 740 713 695 827 1293 1246 1289 943 653 123 0 0 0 0 0 0 0 0 0 0 0 0 0 0 0 0 0 3 2 5 7 10 9 15 12 4 78 167 100 96
1346 580 23 0 0 0 0 0 0 0 0 0 0 0 0 0 0 0 0 0 0 0 0 0 0 0 0 2 3 5 5 6 6 11 11 9 6 8 11 15 1 31 83
469 30 0 0 0 0 0 0 0 0 0 0 0 0 0 0 0 0 0 0 0 0 0 0 0 2 4 5 6 10 12 9 10 10 9 9 9 10 11 10 18 28 54
7 2 1 0 0 0 0 0 0 0 0 0 0 0 0 0 0 0 0 0 0 0 1 2 6 7 8 10 8 6 7 8 7 7 7 10 11 12 15 13 13 15 14
0 0 0 0 0 0 0 0 0 0 0 0 0 0 0 0 0 0 0 0 1 1 5 6 7 8 6 9 7 8 9 7 10 7 12 12 10 12 12 13 13 17 23
0 0 0 0 0 0 0 0 0 0 0 0 0 0 0 0 0 0 0 2 2 2 3 4 4 3 2 2 6 2 3 5 5 10 7 8 9 12 13 13 15 5 9
0 0 0 0 0 0 0 0 0 0 0 0 1 0 0 0 0 0 0 0 0 0 0 0 0 0 0 0 0 0 0 2 2 5 6 4 11 14 11 13 14 17 16
0 0 0 0 0 0 0 0 0 0 0 0 0 0 0 0 0 0 0 0 0 0 0 0 0 0 0 0 0 0 0 0 0 0 2 8 7 6 5 6 9 10 12
0 0 0 0 0 0 0 0 0 0 0 0 0 0 0 0 0 0 0 0 0 0 0 0 0 0 0 0 0 0 0 0 0 0 0 7 1 3 4 4 4 6 11
0 0 0 0 0 0 0 0 0 0 0 0 0 0 0 0 0 0 0 0 0 0 0 0 0 0 0 0 0 0 0 0 0 0 0 3 17 0 3 8 2 1 3
0 0 0 0 0 0 0 0 0 0 0 0 0 0 0 0 0 0 0 0 0 0 0 0 0 0 0 0 0 0 0 0 0 0 0 3 15 20 9 4 9 11 9
0 0 0 0 0 0 0 0 0 0 0 0 0 0 0 0 0 0 0 0 0 0 0 0 0 0 0 0 0 0 0 0 0 0 0 1 5 0 18 15 3 7 9
0 0 0 0 0 0 0 0 0 0 0 0 0 0 0 0 0 0 0 0 0 0 0 0 0 0 0 0 0 0 0 0 0 0 0 0 0 3 5 10 7 4 5